Regional Weather Roundup
Issued by NWS Green Bay, WI

Home | Current Version | Previous Version | Text Only | Print | Product List | Glossary On
Versions: 1 2 3 4 5 6 7 8 9 10 11 12 13 14 15 16 17 18 19 20 21 22 23 24 25 26 27 28 29 30 31 32 33 34 35 36 37 38 39 40 41 42 43 44 45 46 47 48 49 50
000
ASUS43 KGRB 110110
RWRGRB

NORTH-CENTRAL AND NORTHEAST WISCONSIN REGIONAL WEATHER ROUNDUP
NATIONAL WEATHER SERVICE GREEN BAY WI
800 PM CDT THU JUL 10 2014

WIZ005-009-010>012-018-019-110200-
NORTH CENTRAL WISCONSIN

CITY           SKY/WX    TMP DP  RH WIND       PRES   REMARKS
IRONWOOD       CLEAR     73  54  49 S3        30.01S
MANITOWISH WTR CLEAR     71  58  65 S5        30.06S
ARBOR VITAE    CLEAR     72  58  61 S5        30.08S
EAGLE RIVER    CLEAR     71  52  51 CALM      30.09R
LAND O LAKES   CLEAR     71  53  51 CALM      30.09S
RHINELANDER    CLEAR     71  57  61 S5        30.09S
PHILLIPS       MOCLDY    73  61  65 S6        30.06S
ANTIGO         CLEAR     66  59  78 SE7       30.11S
TOMAHAWK       CLEAR     69  60  72 CALM      30.09S
MERRILL        CLEAR     73  60  64 S6        30.08S
$$

WIZ013-073-110200-
NORTHEAST WISCONSIN

CITY           SKY/WX    TMP DP  RH WIND       PRES   REMARKS
IRON MOUNTAIN  CLEAR     69  56  62 SE13      30.09R
MARINETTE      CLEAR     66  52  59 S6        30.11R
OCONTO         CLEAR     68  55  64 S6        30.11R
$$

WIZ017-030-035>037-045-110200-
CENTRAL WISCONSIN

CITY           SKY/WX    TMP DP  RH WIND       PRES   REMARKS
MEDFORD        PTCLDY    71  63  77 S5        30.08S
WAUSAU         CLEAR     74  60  61 S9        30.07R
MOSINEE        PTCLDY    72  63  73 S6        30.10R
MARSHFIELD     PTCLDY    72  64  76 S7        30.08R
WISC RAPIDS    PTCLDY    75  61  61 S6        30.09S
STEVENS POINT  CLEAR     72  59  63 S8        30.10S
WAUPACA        MOCLDY    75  60  59 SE3       30.10R
SHAWANO        CLEAR     74  58  57 SE8       30.10R
CLINTONVILLE   CLEAR     72  59  64 S5        30.10R
$$

WIZ038-039-048-051-110200-
FOX VALLEY

CITY           SKY/WX    TMP DP  RH WIND       PRES   REMARKS
NWS GREEN BAY  CLEAR     69  52  54 S14       30.12R
APPLETON       PTCLDY    72  57  60 SE12      30.12R
OSHKOSH        CLOUDY    71  59  65 SE9       30.11R
FOND DU LAC    PTCLDY    69  56  62 S12       30.13R
$$

WIZ022-050-052-110200-
EAST CENTRAL WISCONSIN

CITY           SKY/WX    TMP DP  RH WIND       PRES   REMARKS
STURGEON BAY   CLEAR     63  50  63 S9        30.13S
MANITOWOC      CLEAR     64  51  62 S12       30.15R
SHEBOYGAN      CLEAR     64  53  67 S7        30.15R
$$

LMZ563-521-522-541>543-110200-
LAKESHORE

STATION/POSITION TIME  TEMP    WIND        PRES    VSBY  WAVE
                       AIR SEA DIR/SP/G                  HT/PER
                 (UTC) (F)     (DEG/KT/KT) (MB)    (MI)  (FT/S)
SHEBOYGAN LKSHOR 0100   63     190/ 11/ 11 1021.0R
KEWAUNEE LKSHORE 0100   57     170/ 11/ 12 1021.0R
ALGOMA MARINA    0000          210/  5/  6   N/A
TWO RIVERS CG    0000   58                   N/A       6   1
NORTHPORT PIER   0100   63     160/  8/ 12 1020.0S
N MID LAKE BUOY  0100   58 56  160/  8/  8 1019.9F         0
MENOMINEE LKSHOR 0100   67     170/ 11/ 14 1020.3R
$$



USA.gov is the U.S. government's official web portal to all federal, state and local government web resources and services.